START_TIME,STEP,MOV.,M34,t_acc.,L5,t_acc.,L18,t_acc.,L14,t_acc.
1979-07-27 21:00:23.930 ,0,0,0.,12.0,0.,12.0,0.,12.0,0.,12.0
1979-07-27 21:00:35.930 ,0,0,0.,12.0,0.,12.0,0.,12.0,0.,12.0
1979-07-27 21:00:47.930 ,0,1,0.,12.0,0.,12.0,0.,12.0,0.,12.0
1979-07-27 21:00:59.930 ,0,1,0.,12.0,0.,12.0,0.,12.0,0.,12.0
1979-07-27 21:01:11.930 ,0,0,0.,12.0,0.,12.0,0.,12.0,0.,12.0
1979-07-27 21:01:23.930 ,0,0,0.,12.0,0.,12.0,0.,12.0,0.,12.0
1979-07-27 21:01:35.930 ,1,1,0.,12.0,0.,12.0,0.,12.0,0.,12.0
1979-07-27 21:01:47.930 ,1,1,0.,12.0,0.,12.0,0.,12.0,0.,12.0
1979-07-27 21:01:59.930 ,1,0,0.,12.0,0.,12.0,0.,12.0,0.,12.0
1979-07-27 21:02:11.930 ,1,0,0.,12.0,0.,12.0,0.,12.0,0.,12.0
1979-07-27 21:02:23.930 ,2,1,0.,12.0,0.,12.0,0.,12.0,0.,12.0
1979-07-27 21:02:35.930 ,2,1,0.,12.0,0.,12.0,0.,12.0,0.,12.0
1979-07-27 21:02:47.930 ,2,0,0.,12.0,0.,12.0,0.,12.0,0.,12.0
1979-07-27 21:02:59.930 ,2,0,0.,12.0,0.,12.0,0.,12.0,0.,12.0
1979-07-27 21:03:11.930 ,3,1,0.,12.0,0.,12.0,0.,12.0,0.,12.0
1979-07-27 21:03:23.930 ,3,1,0.,12.0,0.,12.0,0.,12.0,0.,12.0
1979-07-27 21:03:35.930 ,3,0,0.,12.0,0.,12.0,0.,12.0,0.,12.0
1979-07-27 21:03:47.930 ,3,0,0.,12.0,0.,12.0,0.,12.0,0.,12.0
1979-07-27 21:03:59.930 ,4,1,0.,12.0,0.,12.0,0.,12.0,0.,12.0
1979-07-27 21:04:11.930 ,4,1,0.,12.0,0.,12.0,0.,12.0,0.,12.0
1979-07-27 21:04:23.930 ,4,0,0.,12.0,0.,12.0,0.,12.0,0.,12.0
1979-07-27 21:04:35.930 ,4,0,0.,12.0,0.,12.0,0.,12.0,0.,12.0
1979-07-27 21:04:47.930 ,5,1,0.,12.0,0.,12.0,0.,12.0,0.,12.0
1979-07-27 21:04:59.930 ,5,1,0.,12.0,0.,12.0,0.,12.0,0.,12.0
1979-07-27 21:05:11.930 ,5,0,0.,12.0,0.,12.0,0.,12.0,0.,12.0
1979-07-27 21:05:23.930 ,5,0,0.,12.0,0.,12.0,0.,12.0,0.,12.0
1979-07-27 21:05:35.930 ,6,1,0.,12.0,0.,12.0,0.,12.0,0.,12.0
1979-07-27 21:05:47.930 ,6,1,0.,12.0,0.,12.0,0.,12.0,0.,12.0
1979-07-27 21:05:59.930 ,6,0,0.,12.0,0.,12.0,0.,12.0,0.,12.0
1979-07-27 21:06:11.930 ,6,0,0.,12.0,0.,12.0,0.,12.0,0.,12.0
1979-07-27 21:06:23.930 ,7,0,0.,12.0,0.,12.0,0.,12.0,0.,12.0
1979-07-27 21:06:35.930 ,7,0,0.,12.0,0.,12.0,0.,12.0,0.,12.0
1979-07-27 21:06:47.930 ,7,0,0.,12.0,0.,12.0,0.,12.0,0.,12.0
1979-07-27 21:06:59.930 ,7,0,0.,12.0,0.,12.0,0.,12.0,0.,12.0
1979-07-27 21:07:11.930 ,4,1,0.,12.0,0.,12.0,0.,12.0,0.,12.0
1979-07-27 21:07:23.930 ,4,1,0.,12.0,0.,12.0,0.,12.0,0.,12.0
1979-07-27 21:07:35.930 ,0,1,0.,12.0,0.,12.0,0.,12.0,0.,12.0
1979-07-27 21:07:47.930 ,0,1,0.,12.0,0.,12.0,0.,12.0,0.,12.0
1979-07-27 21:07:59.930 ,3,1,1.,12.0,0.,12.0,0.,12.0,0.,12.0
1979-07-27 21:08:11.930 ,3,1,0.,12.0,0.,12.0,0.,12.0,0.,12.0
1979-07-27 21:08:23.930 ,7,1,0.,12.0,0.,12.0,0.,12.0,0.,12.0
1979-07-27 21:08:35.930 ,7,1,0.,12.0,0.,12.0,0.,12.0,0.,12.0
1979-07-27 21:08:47.930 ,4,1,0.,12.0,0.,12.0,0.,12.0,0.,12.0
1979-07-27 21:08:59.930 ,4,1,0.,12.0,0.,12.0,0.,12.0,0.,12.0
1979-07-27 21:09:11.930 ,0,1,0.,12.0,0.,12.0,0.,12.0,0.,12.0
1979-07-27 21:09:23.930 ,0,1,0.,12.0,0.,12.0,0.,12.0,0.,12.0
1979-07-27 21:09:35.930 ,3,1,0.,12.0,0.,12.0,0.,12.0,0.,12.0
1979-07-27 21:09:47.930 ,3,1,0.,12.0,0.,12.0,0.,12.0,0.,12.0
1979-07-27 21:09:59.930 ,7,1,0.,12.0,0.,12.0,0.,12.0,0.,12.0
1979-07-27 21:10:11.930 ,7,1,0.,12.0,0.,12.0,0.,12.0,0.,12.0
1979-07-27 21:10:23.930 ,4,1,0.,12.0,0.,12.0,0.,12.0,0.,12.0
1979-07-27 21:10:35.930 ,4,1,0.,12.0,0.,12.0,0.,12.0,0.,12.0
1979-07-27 21:10:47.930 ,0,1,0.,12.0,0.,12.0,0.,12.0,0.,12.0
1979-07-27 21:10:59.930 ,0,1,0.,12.0,0.,12.0,0.,12.0,0.,12.0
1979-07-27 21:11:11.930 ,3,1,0.,12.0,0.,12.0,0.,12.0,0.,12.0
1979-07-27 21:11:23.930 ,3,1,0.,12.0,0.,12.0,0.,12.0,0.,12.0
1979-07-27 21:11:35.930 ,7,1,0.,12.0,0.,12.0,0.,12.0,0.,12.0
1979-07-27 21:11:47.930 ,7,1,0.,12.0,0.,12.0,0.,12.0,0.,12.0
1979-07-27 21:11:59.930 ,4,1,0.,12.0,0.,12.0,0.,12.0,0.,12.0
1979-07-27 21:12:11.930 ,4,1,1.,12.0,0.,12.0,0.,12.0,0.,12.0
1979-07-27 21:12:23.930 ,0,1,0.,12.0,0.,12.0,0.,12.0,0.,12.0
1979-07-27 21:12:35.930 ,0,1,0.,12.0,0.,12.0,0.,12.0,0.,12.0
1979-07-27 21:12:47.930 ,3,1,0.,12.0,0.,12.0,0.,12.0,0.,12.0
1979-07-27 21:12:59.930 ,3,1,0.,12.0,0.,12.0,0.,12.0,0.,12.0
1979-07-27 21:13:11.930 ,7,1,0.,12.0,0.,12.0,0.,12.0,0.,12.0
1979-07-27 21:13:23.930 ,7,1,0.,12.0,0.,12.0,0.,12.0,0.,12.0
1979-07-27 21:13:35.930 ,4,1,0.,12.0,0.,12.0,0.,12.0,0.,12.0
1979-07-27 21:13:47.930 ,4,1,0.,12.0,0.,12.0,0.,12.0,0.,12.0
1979-07-27 21:13:59.930 ,0,1,0.,12.0,0.,12.0,0.,12.0,0.,12.0
1979-07-27 21:14:11.930 ,0,1,0.,12.0,0.,12.0,0.,12.0,0.,12.0
1979-07-27 21:14:23.930 ,3,1,0.,12.0,0.,12.0,0.,12.0,0.,12.0
1979-07-27 21:14:35.930 ,3,1,0.,12.0,0.,12.0,0.,12.0,0.,12.0
1979-07-27 21:14:47.930 ,7,1,0.,12.0,0.,12.0,0.,12.0,0.,12.0
1979-07-27 21:14:59.930 ,7,1,0.,12.0,0.,12.0,0.,12.0,0.,12.0
1979-07-27 21:15:11.930 ,4,1,0.,12.0,0.,12.0,0.,12.0,0.,12.0
1979-07-27 21:15:23.930 ,4,1,0.,12.0,0.,12.0,0.,12.0,0.,12.0
1979-07-27 21:15:35.930 ,0,1,0.,12.0,0.,12.0,0.,12.0,0.,12.0
1979-07-27 21:15:47.930 ,0,1,0.,12.0,0.,12.0,0.,12.0,0.,12.0
1979-07-27 21:15:59.930 ,3,1,0.,12.0,0.,12.0,0.,12.0,0.,12.0
1979-07-27 21:16:11.930 ,3,1,0.,12.0,0.,12.0,0.,12.0,0.,12.0
1979-07-27 21:16:23.930 ,7,1,0.,12.0,0.,12.0,0.,12.0,0.,12.0
1979-07-27 21:16:35.930 ,7,1,0.,12.0,0.,12.0,0.,12.0,0.,12.0
1979-07-27 21:16:47.930 ,4,1,0.,12.0,0.,12.0,0.,12.0,0.,12.0
1979-07-27 21:16:59.930 ,4,1,0.,12.0,0.,12.0,0.,12.0,0.,12.0
1979-07-27 21:17:11.930 ,0,1,0.,12.0,0.,12.0,0.,12.0,0.,12.0
1979-07-27 21:17:23.930 ,0,1,0.,12.0,0.,12.0,0.,12.0,0.,12.0
1979-07-27 21:17:35.930 ,0,0,0.,12.0,0.,12.0,0.,12.0,0.,12.0
1979-07-27 21:17:47.930 ,0,0,0.,12.0,0.,12.0,0.,12.0,0.,12.0
1979-07-27 21:17:59.930 ,0,0,0.,12.0,0.,12.0,0.,12.0,0.,12.0
1979-07-27 21:18:11.930 ,0,0,0.,12.0,0.,12.0,0.,12.0,0.,12.0
1979-07-27 21:18:23.930 ,5,1,0.,12.0,0.,12.0,0.,12.0,0.,12.0
1979-07-27 21:18:35.930 ,5,1,0.,12.0,0.,12.0,0.,12.0,0.,12.0
1979-07-27 21:18:47.930 ,5,0,0.,12.0,0.,12.0,0.,12.0,0.,12.0
1979-07-27 21:18:59.930 ,5,0,0.,12.0,0.,12.0,0.,12.0,0.,12.0
1979-07-27 21:19:11.930 ,4,1,0.,12.0,0.,12.0,0.,12.0,0.,12.0
1979-07-27 21:19:23.930 ,4,1,0.,12.0,0.,12.0,0.,12.0,0.,12.0
1979-07-27 21:19:35.930 ,4,0,0.,12.0,0.,12.0,0.,12.0,0.,12.0
1979-07-27 21:19:47.930 ,4,0,0.,12.0,0.,12.0,0.,12.0,0.,12.0
1979-07-27 21:19:59.930 ,3,1,0.,12.0,0.,12.0,0.,12.0,0.,12.0
1979-07-27 21:20:11.930 ,3,1,0.,12.0,0.,12.0,0.,12.0,0.,12.0
1979-07-27 21:20:23.930 ,3,0,1.,12.0,0.,12.0,0.,12.0,0.,12.0
1979-07-27 21:20:35.930 ,3,0,1.,12.0,0.,12.0,0.,12.0,0.,12.0
1979-07-27 21:20:47.930 ,2,1,0.,12.0,0.,12.0,0.,12.0,0.,12.0
1979-07-27 21:20:59.930 ,2,1,0.,12.0,0.,12.0,0.,12.0,0.,12.0
1979-07-27 21:21:11.930 ,2,0,0.,12.0,0.,12.0,0.,12.0,0.,12.0
1979-07-27 21:21:23.930 ,2,0,0.,12.0,0.,12.0,0.,12.0,0.,12.0
1979-07-27 21:21:35.930 ,1,1,0.,12.0,0.,12.0,0.,12.0,0.,12.0
1979-07-27 21:21:47.930 ,1,1,0.,12.0,0.,12.0,0.,12.0,0.,12.0
1979-07-27 21:21:59.930 ,1,0,0.,12.0,0.,12.0,0.,12.0,0.,12.0
1979-07-27 21:22:11.930 ,1,0,0.,12.0,0.,12.0,0.,12.0,0.,12.0
1979-07-27 21:22:23.930 ,0,1,0.,12.0,0.,12.0,0.,12.0,0.,12.0
1979-07-27 21:22:35.930 ,0,1,0.,12.0,0.,12.0,0.,12.0,0.,12.0
1979-07-27 21:22:47.930 ,0,0,0.,12.0,0.,12.0,0.,12.0,0.,12.0
1979-07-27 21:22:59.930 ,0,0,0.,12.0,0.,12.0,0.,12.0,0.,12.0
1979-07-27 21:23:11.930 ,0,1,0.,12.0,0.,12.0,0.,12.0,0.,12.0
1979-07-27 21:23:23.930 ,0,1,0.,12.0,0.,12.0,0.,12.0,0.,12.0
1979-07-27 21:23:35.930 ,0,0,0.,12.0,0.,12.0,0.,12.0,0.,12.0
1979-07-27 21:23:47.930 ,0,0,0.,12.0,0.,12.0,0.,12.0,0.,12.0
1979-07-27 21:23:59.930 ,1,1,0.,12.0,0.,12.0,0.,12.0,0.,12.0
1979-07-27 21:24:11.930 ,1,1,0.,12.0,0.,12.0,0.,12.0,0.,12.0
1979-07-27 21:24:23.930 ,1,0,0.,12.0,0.,12.0,0.,12.0,0.,12.0
1979-07-27 21:24:35.930 ,1,0,0.,12.0,0.,12.0,0.,12.0,0.,12.0
1979-07-27 21:24:47.930 ,2,1,0.,12.0,0.,12.0,0.,12.0,0.,12.0
1979-07-27 21:24:59.930 ,2,1,0.,12.0,0.,12.0,0.,12.0,0.,12.0
1979-07-27 21:25:11.930 ,2,0,0.,12.0,0.,12.0,0.,12.0,0.,12.0
1979-07-27 21:25:23.930 ,2,0,0.,12.0,0.,12.0,0.,12.0,0.,12.0
1979-07-27 21:25:35.930 ,3,1,0.,12.0,0.,12.0,0.,12.0,0.,12.0
1979-07-27 21:25:47.930 ,3,1,0.,12.0,0.,12.0,0.,12.0,0.,12.0
1979-07-27 21:25:59.930 ,3,0,0.,12.0,0.,12.0,0.,12.0,0.,12.0
1979-07-27 21:26:11.930 ,3,0,0.,12.0,0.,12.0,0.,12.0,0.,12.0
1979-07-27 21:26:23.930 ,4,1,0.,12.0,0.,12.0,0.,12.0,0.,12.0
1979-07-27 21:26:35.930 ,4,1,0.,12.0,0.,12.0,0.,12.0,0.,12.0
1979-07-27 21:26:47.930 ,4,0,0.,12.0,0.,12.0,0.,12.0,0.,12.0
1979-07-27 21:26:59.930 ,4,0,0.,12.0,0.,12.0,0.,12.0,0.,12.0
1979-07-27 21:27:11.930 ,5,1,0.,12.0,0.,12.0,0.,12.0,0.,12.0
1979-07-27 21:27:23.930 ,5,1,1.,12.0,0.,12.0,0.,12.0,0.,12.0
1979-07-27 21:27:35.930 ,5,0,0.,12.0,0.,12.0,0.,12.0,0.,12.0
1979-07-27 21:27:47.930 ,5,0,0.,12.0,0.,12.0,0.,12.0,0.,12.0
1979-07-27 21:27:59.930 ,6,1,0.,12.0,0.,12.0,0.,12.0,0.,12.0
1979-07-27 21:28:11.930 ,6,1,0.,12.0,0.,12.0,0.,12.0,0.,12.0
1979-07-27 21:28:23.930 ,6,0,0.,12.0,0.,12.0,0.,12.0,0.,12.0
1979-07-27 21:28:35.930 ,6,0,0.,12.0,0.,12.0,0.,12.0,0.,12.0
1979-07-27 21:28:47.930 ,7,1,0.,12.0,0.,12.0,0.,12.0,0.,12.0
1979-07-27 21:28:59.930 ,7,1,0.,12.0,0.,12.0,0.,12.0,0.,12.0
1979-07-27 21:29:11.930 ,7,0,0.,12.0,0.,12.0,0.,12.0,0.,12.0
1979-07-27 21:29:23.930 ,7,0,0.,12.0,0.,12.0,0.,12.0,0.,12.0
1979-07-27 21:29:35.930 ,7,1,0.,12.0,0.,12.0,0.,12.0,0.,12.0
1979-07-27 21:29:47.930 ,7,1,0.,12.0,0.,12.0,0.,12.0,0.,12.0
1979-07-27 21:29:59.930 ,7,0,0.,12.0,0.,12.0,0.,12.0,0.,12.0
1979-07-27 21:30:11.930 ,7,0,0.,12.0,0.,12.0,0.,12.0,0.,12.0
1979-07-27 21:30:23.930 ,6,1,0.,12.0,0.,12.0,0.,12.0,0.,12.0
1979-07-27 21:30:35.930 ,6,1,0.,12.0,0.,12.0,0.,12.0,0.,12.0
1979-07-27 21:30:47.930 ,6,0,0.,12.0,0.,12.0,0.,12.0,0.,12.0
1979-07-27 21:30:59.930 ,6,0,0.,12.0,0.,12.0,0.,12.0,0.,12.0
1979-07-27 21:31:11.930 ,5,1,0.,12.0,0.,12.0,0.,12.0,0.,12.0
1979-07-27 21:31:23.930 ,5,1,0.,12.0,0.,12.0,0.,12.0,0.,12.0
1979-07-27 21:31:35.930 ,5,0,0.,12.0,0.,12.0,0.,12.0,0.,12.0
1979-07-27 21:31:47.930 ,5,0,0.,12.0,0.,12.0,0.,12.0,0.,12.0
1979-07-27 21:31:59.930 ,4,1,0.,12.0,0.,12.0,0.,12.0,0.,12.0
1979-07-27 21:32:11.930 ,4,1,0.,12.0,0.,12.0,0.,12.0,0.,12.0
1979-07-27 21:32:23.930 ,4,0,0.,12.0,0.,12.0,0.,12.0,0.,12.0
1979-07-27 21:32:35.930 ,4,0,0.,12.0,0.,12.0,0.,12.0,0.,12.0
1979-07-27 21:32:47.930 ,3,1,0.,12.0,0.,12.0,0.,12.0,0.,12.0
1979-07-27 21:32:59.930 ,3,1,0.,12.0,0.,12.0,0.,12.0,0.,12.0
1979-07-27 21:33:11.930 ,3,0,0.,12.0,0.,12.0,0.,12.0,0.,12.0
1979-07-27 21:33:23.930 ,3,0,1.,12.0,0.,12.0,0.,12.0,0.,12.0
1979-07-27 21:33:35.930 ,2,1,0.,12.0,0.,12.0,0.,12.0,0.,12.0
1979-07-27 21:33:47.930 ,2,1,0.,12.0,0.,12.0,0.,12.0,0.,12.0
1979-07-27 21:33:59.930 ,2,0,0.,12.0,0.,12.0,0.,12.0,0.,12.0
1979-07-27 21:34:11.930 ,2,0,0.,12.0,0.,12.0,0.,12.0,0.,12.0
1979-07-27 21:34:23.930 ,1,1,0.,12.0,0.,12.0,0.,12.0,0.,12.0
1979-07-27 21:34:35.930 ,1,1,0.,12.0,0.,12.0,0.,12.0,0.,12.0
1979-07-27 21:34:47.930 ,1,0,0.,12.0,0.,12.0,0.,12.0,0.,12.0
1979-07-27 21:34:59.930 ,1,0,0.,12.0,0.,12.0,0.,12.0,0.,12.0
1979-07-27 21:35:11.930 ,0,1,0.,12.0,0.,12.0,0.,12.0,0.,12.0
1979-07-27 21:35:23.930 ,0,1,1.,12.0,0.,12.0,0.,12.0,0.,12.0
1979-07-27 21:35:35.930 ,0,0,0.,12.0,0.,12.0,0.,12.0,0.,12.0
1979-07-27 21:35:47.930 ,0,0,0.,12.0,0.,12.0,0.,12.0,0.,12.0
1979-07-27 21:35:59.930 ,0,1,0.,12.0,0.,12.0,0.,12.0,0.,12.0
1979-07-27 21:36:11.930 ,0,1,0.,12.0,0.,12.0,0.,12.0,0.,12.0
1979-07-27 21:36:23.930 ,0,0,0.,12.0,0.,12.0,0.,12.0,0.,12.0
1979-07-27 21:36:35.930 ,0,0,0.,12.0,0.,12.0,0.,12.0,0.,12.0
1979-07-27 21:36:47.930 ,1,1,0.,12.0,0.,12.0,0.,12.0,0.,12.0
1979-07-27 21:36:59.930 ,1,1,0.,12.0,0.,12.0,0.,12.0,0.,12.0
1979-07-27 21:37:11.930 ,1,0,1.,12.0,0.,12.0,0.,12.0,0.,12.0
1979-07-27 21:37:23.930 ,1,0,0.,12.0,0.,12.0,0.,12.0,0.,12.0
1979-07-27 21:37:35.930 ,2,1,0.,12.0,0.,12.0,0.,12.0,0.,12.0
1979-07-27 21:37:47.930 ,2,1,0.,12.0,0.,12.0,0.,12.0,0.,12.0
1979-07-27 21:37:59.930 ,2,0,0.,12.0,0.,12.0,0.,12.0,0.,12.0
1979-07-27 21:38:11.930 ,2,0,0.,12.0,0.,12.0,0.,12.0,0.,12.0
1979-07-27 21:38:23.930 ,3,1,0.,12.0,0.,12.0,0.,12.0,0.,12.0
1979-07-27 21:38:35.930 ,3,1,0.,12.0,0.,12.0,0.,12.0,0.,12.0
1979-07-27 21:38:47.930 ,3,0,0.,12.0,0.,12.0,0.,12.0,0.,12.0
1979-07-27 21:38:59.930 ,3,0,0.,12.0,0.,12.0,0.,12.0,0.,12.0
1979-07-27 21:39:11.930 ,4,1,0.,12.0,0.,12.0,0.,12.0,0.,12.0
1979-07-27 21:39:23.930 ,4,1,0.,12.0,0.,12.0,0.,12.0,0.,12.0
1979-07-27 21:39:35.930 ,4,0,0.,12.0,0.,12.0,0.,12.0,0.,12.0
1979-07-27 21:39:47.930 ,4,0,0.,12.0,0.,12.0,0.,12.0,0.,12.0
1979-07-27 21:39:59.930 ,5,1,0.,12.0,0.,12.0,0.,12.0,0.,12.0
1979-07-27 21:40:11.930 ,5,1,0.,12.0,0.,12.0,0.,12.0,0.,12.0
1979-07-27 21:40:23.930 ,5,0,0.,12.0,0.,12.0,0.,12.0,0.,12.0
1979-07-27 21:40:35.930 ,5,0,0.,12.0,0.,12.0,0.,12.0,0.,12.0
1979-07-27 21:40:47.930 ,6,1,0.,12.0,0.,12.0,0.,12.0,0.,12.0
1979-07-27 21:40:59.930 ,6,1,0.,12.0,0.,12.0,0.,12.0,0.,12.0
1979-07-27 21:41:11.930 ,6,0,0.,12.0,0.,12.0,0.,12.0,0.,12.0
1979-07-27 21:41:23.930 ,6,0,0.,12.0,0.,12.0,0.,12.0,0.,12.0
1979-07-27 21:41:35.930 ,7,1,0.,12.0,0.,12.0,0.,12.0,0.,12.0
1979-07-27 21:41:47.930 ,7,1,0.,12.0,0.,12.0,0.,12.0,0.,12.0
1979-07-27 21:41:59.930 ,7,0,0.,12.0,0.,12.0,0.,12.0,0.,12.0
1979-07-27 21:42:11.930 ,7,0,0.,12.0,0.,12.0,0.,12.0,0.,12.0
1979-07-27 21:42:23.930 ,7,1,0.,12.0,0.,12.0,0.,12.0,0.,12.0
1979-07-27 21:42:35.930 ,7,1,0.,12.0,0.,12.0,0.,12.0,0.,12.0
1979-07-27 21:42:47.930 ,7,0,0.,12.0,0.,12.0,0.,12.0,0.,12.0
1979-07-27 21:42:59.930 ,7,0,0.,12.0,0.,12.0,0.,12.0,0.,12.0
1979-07-27 21:43:11.930 ,6,1,0.,12.0,0.,12.0,0.,12.0,0.,12.0
1979-07-27 21:43:23.930 ,6,1,0.,12.0,0.,12.0,0.,12.0,0.,12.0
1979-07-27 21:43:35.930 ,6,0,0.,12.0,0.,12.0,0.,12.0,0.,12.0
1979-07-27 21:43:47.930 ,6,0,0.,12.0,0.,12.0,0.,12.0,0.,12.0
1979-07-27 21:43:59.930 ,5,1,0.,12.0,0.,12.0,0.,12.0,0.,12.0
1979-07-27 21:44:11.930 ,5,1,0.,12.0,0.,12.0,0.,12.0,0.,12.0
1979-07-27 21:44:23.930 ,5,0,0.,12.0,0.,12.0,0.,12.0,0.,12.0
1979-07-27 21:44:35.930 ,5,0,0.,12.0,0.,12.0,0.,12.0,0.,12.0
1979-07-27 21:44:47.930 ,4,1,0.,12.0,0.,12.0,0.,12.0,0.,12.0
1979-07-27 21:44:59.930 ,4,1,1.,12.0,0.,12.0,0.,12.0,0.,12.0
1979-07-27 21:45:11.930 ,4,0,0.,12.0,0.,12.0,0.,12.0,0.,12.0
1979-07-27 21:45:23.930 ,4,0,0.,12.0,0.,12.0,0.,12.0,0.,12.0
1979-07-27 21:45:35.930 ,3,1,0.,12.0,0.,12.0,0.,12.0,0.,12.0
1979-07-27 21:45:47.930 ,3,1,0.,12.0,0.,12.0,0.,12.0,0.,12.0
1979-07-27 21:45:59.930 ,3,0,0.,12.0,0.,12.0,0.,12.0,0.,12.0
1979-07-27 21:46:11.930 ,3,0,0.,12.0,0.,12.0,0.,12.0,0.,12.0
1979-07-27 21:46:23.930 ,2,1,0.,12.0,0.,12.0,0.,12.0,0.,12.0
1979-07-27 21:46:35.930 ,2,1,0.,12.0,0.,12.0,0.,12.0,0.,12.0
1979-07-27 21:46:47.930 ,2,0,0.,12.0,0.,12.0,0.,12.0,0.,12.0
1979-07-27 21:46:59.930 ,2,0,0.,12.0,0.,12.0,0.,12.0,0.,12.0
1979-07-27 21:47:11.930 ,1,1,0.,12.0,0.,12.0,0.,12.0,0.,12.0
1979-07-27 21:47:23.930 ,1,1,1.,12.0,0.,12.0,0.,12.0,0.,12.0
1979-07-27 21:47:35.930 ,1,0,0.,12.0,0.,12.0,0.,12.0,0.,12.0
1979-07-27 21:47:47.930 ,1,0,0.,12.0,0.,12.0,0.,12.0,0.,12.0
1979-07-27 21:47:59.930 ,0,1,1.,12.0,0.,12.0,0.,12.0,0.,12.0
1979-07-27 21:48:11.930 ,0,1,0.,12.0,0.,12.0,0.,12.0,0.,12.0
1979-07-27 21:48:23.930 ,0,0,0.,12.0,0.,12.0,0.,12.0,0.,12.0
1979-07-27 21:48:35.930 ,0,0,0.,12.0,0.,12.0,0.,12.0,0.,12.0
1979-07-27 21:48:47.930 ,0,1,0.,12.0,0.,12.0,0.,12.0,0.,12.0
1979-07-27 21:48:59.930 ,0,1,0.,12.0,0.,12.0,0.,12.0,0.,12.0
1979-07-27 21:49:11.930 ,0,0,0.,12.0,0.,12.0,0.,12.0,0.,12.0
1979-07-27 21:49:23.930 ,0,0,0.,12.0,0.,12.0,0.,12.0,0.,12.0
1979-07-27 21:49:35.930 ,1,1,0.,12.0,0.,12.0,0.,12.0,0.,12.0
1979-07-27 21:49:47.930 ,1,1,0.,12.0,0.,12.0,0.,12.0,0.,12.0
1979-07-27 21:49:59.930 ,1,0,0.,12.0,0.,12.0,0.,12.0,0.,12.0
1979-07-27 21:50:11.930 ,1,0,1.,12.0,0.,12.0,0.,12.0,0.,12.0
1979-07-27 21:50:23.930 ,2,1,0.,12.0,0.,12.0,0.,12.0,0.,12.0
1979-07-27 21:50:35.930 ,2,1,0.,12.0,0.,12.0,0.,12.0,0.,12.0
1979-07-27 21:50:47.930 ,2,0,0.,12.0,0.,12.0,0.,12.0,0.,12.0
1979-07-27 21:50:59.930 ,2,0,0.,12.0,0.,12.0,0.,12.0,0.,12.0
1979-07-27 21:51:11.930 ,3,1,0.,12.0,0.,12.0,0.,12.0,0.,12.0
1979-07-27 21:51:23.930 ,3,1,0.,12.0,0.,12.0,0.,12.0,0.,12.0
1979-07-27 21:51:35.930 ,3,0,0.,12.0,0.,12.0,0.,12.0,0.,12.0
1979-07-27 21:51:47.930 ,3,0,0.,12.0,0.,12.0,0.,12.0,0.,12.0
1979-07-27 21:51:59.930 ,4,1,0.,12.0,0.,12.0,0.,12.0,0.,12.0
1979-07-27 21:52:11.930 ,4,1,0.,12.0,0.,12.0,0.,12.0,0.,12.0
1979-07-27 21:52:23.930 ,4,0,0.,12.0,0.,12.0,0.,12.0,0.,12.0
1979-07-27 21:52:35.930 ,4,0,0.,12.0,0.,12.0,0.,12.0,0.,12.0
1979-07-27 21:52:47.930 ,5,1,0.,12.0,0.,12.0,0.,12.0,0.,12.0
1979-07-27 21:52:59.930 ,5,1,1.,12.0,0.,12.0,0.,12.0,0.,12.0
1979-07-27 21:53:11.930 ,5,0,0.,12.0,0.,12.0,0.,12.0,0.,12.0
1979-07-27 21:53:23.930 ,5,0,0.,12.0,0.,12.0,0.,12.0,0.,12.0
1979-07-27 21:53:35.930 ,6,1,0.,12.0,0.,12.0,0.,12.0,0.,12.0
1979-07-27 21:53:47.930 ,6,1,0.,12.0,0.,12.0,0.,12.0,0.,12.0
1979-07-27 21:53:59.930 ,6,0,0.,12.0,0.,12.0,0.,12.0,0.,12.0
1979-07-27 21:54:11.930 ,6,0,0.,12.0,0.,12.0,0.,12.0,0.,12.0
1979-07-27 21:54:23.930 ,7,0,0.,12.0,0.,12.0,0.,12.0,0.,12.0
1979-07-27 21:54:35.930 ,7,0,0.,12.0,0.,12.0,0.,12.0,0.,12.0
1979-07-27 21:54:47.930 ,7,0,0.,12.0,0.,12.0,0.,12.0,0.,12.0
1979-07-27 21:54:59.930 ,7,0,0.,12.0,0.,12.0,0.,12.0,0.,12.0
1979-07-27 21:55:11.930 ,4,1,0.,12.0,0.,12.0,0.,12.0,0.,12.0
1979-07-27 21:55:23.930 ,4,1,0.,12.0,0.,12.0,0.,12.0,0.,12.0
1979-07-27 21:55:35.930 ,0,1,0.,12.0,0.,12.0,0.,12.0,0.,12.0
1979-07-27 21:55:47.930 ,0,1,0.,12.0,0.,12.0,0.,12.0,0.,12.0
1979-07-27 21:55:59.930 ,3,1,0.,12.0,0.,12.0,0.,12.0,0.,12.0
1979-07-27 21:56:11.930 ,3,1,0.,12.0,0.,12.0,0.,12.0,0.,12.0
1979-07-27 21:56:23.930 ,7,1,0.,12.0,0.,12.0,0.,12.0,0.,12.0
1979-07-27 21:56:35.930 ,7,1,0.,12.0,0.,12.0,0.,12.0,0.,12.0
1979-07-27 21:56:47.930 ,4,1,0.,12.0,0.,12.0,0.,12.0,0.,12.0
1979-07-27 21:56:59.930 ,4,1,0.,12.0,0.,12.0,0.,12.0,0.,12.0
1979-07-27 21:57:11.930 ,0,1,0.,12.0,0.,12.0,0.,12.0,0.,12.0
1979-07-27 21:57:23.930 ,0,1,0.,12.0,0.,12.0,0.,12.0,0.,12.0
1979-07-27 21:57:35.930 ,3,1,0.,12.0,0.,12.0,0.,12.0,0.,12.0
1979-07-27 21:57:47.930 ,3,1,0.,12.0,0.,12.0,0.,12.0,0.,12.0
1979-07-27 21:57:59.930 ,7,1,0.,12.0,0.,12.0,0.,12.0,0.,12.0
1979-07-27 21:58:11.930 ,7,1,0.,12.0,0.,12.0,0.,12.0,0.,12.0
1979-07-27 21:58:23.930 ,4,1,0.,12.0,0.,12.0,0.,12.0,0.,12.0
1979-07-27 21:58:35.930 ,4,1,0.,12.0,0.,12.0,0.,12.0,0.,12.0
1979-07-27 21:58:47.930 ,0,1,0.,12.0,0.,12.0,0.,12.0,0.,12.0
1979-07-27 21:58:59.930 ,0,1,0.,12.0,0.,12.0,0.,12.0,0.,12.0
1979-07-27 21:59:11.930 ,3,1,0.,12.0,0.,12.0,0.,12.0,0.,12.0
1979-07-27 21:59:23.930 ,3,1,0.,12.0,0.,12.0,0.,12.0,0.,12.0
1979-07-27 21:59:35.930 ,7,1,0.,12.0,0.,12.0,0.,12.0,0.,12.0
1979-07-27 21:59:47.930 ,7,1,0.,12.0,0.,12.0,0.,12.0,0.,12.0
1979-07-27 21:59:59.930 ,4,1,0.,12.0,0.,12.0,0.,12.0,0.,12.0
1979-07-27 22:00:11.930 ,4,1,0.,12.0,0.,12.0,0.,12.0,0.,12.0
1979-07-27 22:00:23.930 ,0,1,0.,12.0,0.,12.0,0.,12.0,0.,12.0
1979-07-27 22:00:35.930 ,0,1,0.,12.0,0.,12.0,0.,12.0,0.,12.0
1979-07-27 22:00:47.930 ,3,1,0.,12.0,0.,12.0,0.,12.0,0.,12.0
1979-07-27 22:00:59.930 ,3,1,0.,12.0,0.,12.0,0.,12.0,0.,12.0
1979-07-27 22:01:11.930 ,7,1,0.,12.0,0.,12.0,0.,12.0,0.,12.0
1979-07-27 22:01:23.930 ,7,1,0.,12.0,0.,12.0,0.,12.0,0.,12.0
1979-07-27 22:01:35.930 ,4,1,0.,12.0,0.,12.0,0.,12.0,0.,12.0
1979-07-27 22:01:47.930 ,4,1,0.,12.0,0.,12.0,0.,12.0,0.,12.0
1979-07-27 22:01:59.930 ,0,1,0.,12.0,0.,12.0,0.,12.0,0.,12.0
1979-07-27 22:02:11.930 ,0,1,0.,12.0,0.,12.0,0.,12.0,0.,12.0
1979-07-27 22:02:23.930 ,3,1,0.,12.0,0.,12.0,0.,12.0,0.,12.0
1979-07-27 22:02:35.930 ,3,1,0.,12.0,0.,12.0,0.,12.0,0.,12.0
1979-07-27 22:02:47.930 ,7,1,0.,12.0,0.,12.0,0.,12.0,0.,12.0
1979-07-27 22:02:59.930 ,7,1,0.,12.0,0.,12.0,0.,12.0,0.,12.0
1979-07-27 22:03:11.930 ,4,1,0.,12.0,0.,12.0,0.,12.0,0.,12.0
1979-07-27 22:03:23.930 ,4,1,0.,12.0,0.,12.0,0.,12.0,0.,12.0
1979-07-27 22:03:35.930 ,0,1,0.,12.0,0.,12.0,0.,12.0,0.,12.0
1979-07-27 22:03:47.930 ,0,1,0.,12.0,0.,12.0,0.,12.0,1.,12.0
1979-07-27 22:03:59.930 ,3,1,0.,12.0,0.,12.0,0.,12.0,0.,12.0
1979-07-27 22:04:11.930 ,3,1,0.,12.0,0.,12.0,0.,12.0,0.,12.0
1979-07-27 22:04:23.930 ,7,1,0.,12.0,0.,12.0,0.,12.0,0.,12.0
1979-07-27 22:04:35.930 ,7,1,0.,12.0,0.,12.0,0.,12.0,0.,12.0
1979-07-27 22:04:47.930 ,4,1,0.,12.0,0.,12.0,0.,12.0,0.,12.0
1979-07-27 22:04:59.930 ,4,1,0.,12.0,0.,12.0,0.,12.0,0.,12.0
1979-07-27 22:05:11.930 ,0,1,0.,12.0,0.,12.0,0.,12.0,0.,12.0
1979-07-27 22:05:23.930 ,0,1,0.,12.0,0.,12.0,0.,12.0,0.,12.0
1979-07-27 22:05:35.930 ,0,0,0.,12.0,0.,12.0,0.,12.0,0.,12.0
1979-07-27 22:05:47.930 ,0,0,0.,12.0,0.,12.0,0.,12.0,0.,12.0
1979-07-27 22:05:59.930 ,0,0,0.,12.0,0.,12.0,0.,12.0,0.,12.0
1979-07-27 22:06:11.930 ,0,0,0.,12.0,0.,12.0,0.,12.0,0.,12.0
1979-07-27 22:06:23.930 ,5,1,0.,12.0,0.,12.0,0.,12.0,0.,12.0
1979-07-27 22:06:35.930 ,5,1,0.,12.0,0.,12.0,0.,12.0,0.,12.0
1979-07-27 22:06:47.930 ,5,0,0.,12.0,0.,12.0,0.,12.0,0.,12.0
1979-07-27 22:06:59.930 ,5,0,0.,12.0,0.,12.0,0.,12.0,0.,12.0
1979-07-27 22:07:11.930 ,4,1,0.,12.0,0.,12.0,0.,12.0,0.,12.0
1979-07-27 22:07:23.930 ,4,1,0.,12.0,0.,12.0,0.,12.0,1.,12.0
1979-07-27 22:07:35.930 ,4,0,0.,12.0,0.,12.0,0.,12.0,0.,12.0
1979-07-27 22:07:47.930 ,4,0,0.,12.0,0.,12.0,0.,12.0,0.,12.0
1979-07-27 22:07:59.930 ,3,1,0.,12.0,0.,12.0,0.,12.0,0.,12.0
1979-07-27 22:08:11.930 ,3,1,0.,12.0,0.,12.0,0.,12.0,0.,12.0
1979-07-27 22:08:23.930 ,3,0,0.,12.0,0.,12.0,0.,12.0,0.,12.0
1979-07-27 22:08:35.930 ,3,0,0.,12.0,0.,12.0,0.,12.0,0.,12.0
1979-07-27 22:08:47.930 ,2,1,0.,12.0,0.,12.0,0.,12.0,0.,12.0
1979-07-27 22:08:59.930 ,2,1,0.,12.0,0.,12.0,0.,12.0,0.,12.0
1979-07-27 22:09:11.930 ,2,0,0.,12.0,0.,12.0,0.,12.0,0.,12.0
1979-07-27 22:09:23.930 ,2,0,0.,12.0,0.,12.0,0.,12.0,0.,12.0
1979-07-27 22:09:35.930 ,1,1,0.,12.0,0.,12.0,0.,12.0,0.,12.0
1979-07-27 22:09:47.930 ,1,1,0.,12.0,0.,12.0,0.,12.0,0.,12.0
1979-07-27 22:09:59.930 ,1,0,0.,12.0,0.,12.0,0.,12.0,0.,12.0
1979-07-27 22:10:11.930 ,1,0,0.,12.0,0.,12.0,0.,12.0,0.,12.0
1979-07-27 22:10:23.930 ,0,1,0.,12.0,0.,12.0,0.,12.0,0.,12.0
1979-07-27 22:10:35.930 ,0,1,0.,12.0,0.,12.0,0.,12.0,0.,12.0
1979-07-27 22:10:47.930 ,0,0,0.,12.0,0.,12.0,0.,12.0,0.,12.0
1979-07-27 22:10:59.930 ,0,0,0.,12.0,0.,12.0,0.,12.0,0.,12.0
1979-07-27 22:11:11.930 ,0,1,0.,12.0,0.,12.0,0.,12.0,0.,12.0
1979-07-27 22:11:23.930 ,0,1,0.,12.0,0.,12.0,0.,12.0,0.,12.0
1979-07-27 22:11:35.930 ,0,0,0.,12.0,0.,12.0,0.,12.0,0.,12.0
1979-07-27 22:11:47.930 ,0,0,0.,12.0,0.,12.0,0.,12.0,0.,12.0
1979-07-27 22:11:59.930 ,1,1,0.,12.0,0.,12.0,0.,12.0,0.,12.0
1979-07-27 22:12:11.930 ,1,1,0.,12.0,0.,12.0,0.,12.0,0.,12.0
1979-07-27 22:12:23.930 ,1,0,0.,12.0,0.,12.0,0.,12.0,0.,12.0
1979-07-27 22:12:35.930 ,1,0,0.,12.0,0.,12.0,0.,12.0,0.,12.0
1979-07-27 22:12:47.930 ,2,1,0.,12.0,0.,12.0,0.,12.0,0.,12.0
1979-07-27 22:12:59.930 ,2,1,0.,12.0,0.,12.0,0.,12.0,0.,12.0
1979-07-27 22:13:11.930 ,2,0,0.,12.0,0.,12.0,0.,12.0,0.,12.0
1979-07-27 22:13:23.930 ,2,0,0.,12.0,0.,12.0,0.,12.0,0.,12.0
1979-07-27 22:13:35.930 ,3,1,0.,12.0,0.,12.0,0.,12.0,0.,12.0
1979-07-27 22:13:47.930 ,3,1,0.,12.0,0.,12.0,0.,12.0,0.,12.0
1979-07-27 22:13:59.930 ,3,0,0.,12.0,0.,12.0,0.,12.0,0.,12.0
1979-07-27 22:14:11.930 ,3,0,0.,12.0,0.,12.0,0.,12.0,0.,12.0
1979-07-27 22:14:23.930 ,4,1,0.,12.0,0.,12.0,0.,12.0,0.,12.0
1979-07-27 22:14:35.930 ,4,1,0.,12.0,0.,12.0,0.,12.0,0.,12.0
1979-07-27 22:14:47.930 ,4,0,0.,12.0,0.,12.0,0.,12.0,0.,12.0
1979-07-27 22:14:59.930 ,4,0,1.,12.0,0.,12.0,0.,12.0,0.,12.0
1979-07-27 22:15:11.930 ,5,1,0.,12.0,0.,12.0,0.,12.0,0.,12.0
1979-07-27 22:15:23.930 ,5,1,0.,12.0,0.,12.0,0.,12.0,0.,12.0
1979-07-27 22:15:35.930 ,5,0,0.,12.0,0.,12.0,0.,12.0,0.,12.0
1979-07-27 22:15:47.930 ,5,0,0.,12.0,0.,12.0,0.,12.0,0.,12.0
1979-07-27 22:15:59.930 ,6,1,1.,12.0,0.,12.0,0.,12.0,0.,12.0
1979-07-27 22:16:11.930 ,6,1,0.,12.0,0.,12.0,0.,12.0,0.,12.0
1979-07-27 22:16:23.930 ,6,0,0.,12.0,0.,12.0,0.,12.0,0.,12.0
1979-07-27 22:16:35.930 ,6,0,0.,12.0,0.,12.0,0.,12.0,0.,12.0
1979-07-27 22:16:47.930 ,7,1,0.,12.0,0.,12.0,0.,12.0,0.,12.0
1979-07-27 22:16:59.930 ,7,1,0.,12.0,0.,12.0,0.,12.0,0.,12.0
1979-07-27 22:17:11.930 ,7,0,0.,12.0,0.,12.0,0.,12.0,0.,12.0
1979-07-27 22:17:23.930 ,7,0,0.,12.0,0.,12.0,0.,12.0,1.,12.0